Location: Nairn
(57.5833°N, 3.8667°W)
Time: 22:21:11
(UTC+00:00)

Tiros 1 - Pass Details

Date: 02 October 2022
Orbit: 629 x 662 km, 48.4° (Epoch: 08 December)

Event Time Altitude Azimuth Distance (km) Brightness Sun altitude
Exits shadow 04:32:51 19° 216° (SW) 1,539 8.6 -15.2°
Maximum altitude 04:33:45 20° 201° (SSW) 1,491 8.7 -15.1°
Drops below altitude 10° 04:37:11 10° 154° (SSE) 2,045 9.8 -14.6°
Sets 04:40:00 0° 138° (SE) 2,946 10.9 -14.3°
